Back to catalog

STARLINK-4146

AliveCommunicationsVLEO
NORAD 53294·PAYLOAD·🇺🇸 United States

Launched Jul 24, 2022 from Cape Canaveral Space Force Station

Loading…

Next Passes (next 24 hours)

TLE

FreshSource: CelesTrak SupGP

Epoch: Sep 14, 2026, 21:18 UTC

1 53294C 22086BE  26257.88798611  .00025835  00000+0  73923-3 0  2577
2 53294  53.1596  32.8631 0001227  76.7643 247.8545 15.35383317    17

Track STARLINK-4146 in real time with AllMySat

Download on the App Store